| time (UTC) | temp F | wind direction | speed MPH | gust MPH | rain 1hr in | rain 24hr in | rain mn in | humidity % | barometer mb |
| 20260503004829 | 45 | 15 | 0.0 | 3.0 | 0.00 | 0.00 | 0.00 | 60 | 1018.1 |
| 20260503004322 | 45 | 12 | 0.0 | 4.0 | 0.00 | 0.00 | 0.00 | 60 | 1018.1 |
| 20260503003815 | 46 | 350 | 1.0 | 4.0 | 0.00 | 0.00 | 0.00 | 59 | 1018.1 |
| 20260503003328 | 46 | 15 | 2.0 | 4.0 | 0.00 | 0.00 | 0.00 | 59 | 1018.1 |
| 20260503002841 | 46 | 18 | 1.0 | 3.0 | 0.00 | 0.00 | 0.00 | 58 | 1018.1 |
| 20260503002313 | 47 | 323 | 2.0 | 5.0 | 0.00 | 0.00 | 0.00 | 58 | 1018.0 |
| 20260503001826 | 47 | 344 | 2.0 | 5.0 | 0.00 | 0.00 | 0.00 | 58 | 1018.0 |
| 20260503001319 | 47 | 347 | 2.0 | 5.0 | 0.00 | 0.00 | 0.00 | 57 | 1017.9 |
| 20260503000912 | 47 | 35 | 2.0 | 6.0 | 0.00 | 0.00 | 0.00 | 57 | 1018.0 |
| 20260503000325 | 48 | 8 | 3.0 | 6.0 | 0.00 | 0.00 | 0.00 | 56 | 1017.9 |
| 20260502235817 | 48 | 22 | 2.0 | 11.0 | 0.00 | 0.00 | 0.00 | 56 | 1017.9 |
| 20260502235350 | 48 | 352 | 3.0 | 13.0 | 0.00 | 0.00 | 0.00 | 55 | 1017.8 |
| 20260502234842 | 49 | 4 | 6.0 | 13.0 | 0.00 | 0.00 | 0.00 | 52 | 1017.9 |
| 20260502234313 | 49 | 341 | 3.0 | 9.0 | 0.00 | 0.00 | 0.00 | 51 | 1017.8 |
| 20260502233825 | 49 | 325 | 3.0 | 10.0 | 0.00 | 0.00 | 0.00 | 51 | 1017.7 |
| 20260502233318 | 50 | 8 | 6.0 | 11.0 | 0.00 | 0.00 | 0.00 | 49 | 1017.7 |
| 20260502232811 | 50 | 2 | 4.0 | 12.0 | 0.00 | 0.00 | 0.00 | 52 | 1017.7 |
| 20260502232324 | 50 | 45 | 4.0 | 10.0 | 0.00 | 0.00 | 0.00 | 50 | 1017.8 |
| 20260502231821 | 51 | 27 | 6.0 | 12.0 | 0.00 | 0.00 | 0.00 | 50 | 1017.7 |
| 20260502231314 | 51 | 325 | 6.0 | 11.0 | 0.00 | 0.00 | 0.00 | 49 | 1017.7 |
| 20260502230824 | 51 | 352 | 2.0 | 7.0 | 0.00 | 0.00 | 0.00 | 48 | 1017.6 |
| 20260502230316 | 51 | 358 | 2.0 | 13.0 | 0.00 | 0.00 | 0.00 | 50 | 1017.7 |
| 20260502225850 | 51 | 279 | 3.0 | 13.0 | 0.00 | 0.00 | 0.00 | 49 | 1017.7 |
| 20260502225321 | 52 | 350 | 4.0 | 12.0 | 0.00 | 0.00 | 0.00 | 48 | 1017.6 |
| 20260502224814 | 52 | 347 | 4.0 | 10.0 | 0.00 | 0.00 | 0.00 | 49 | 1017.6 |
| 20260502224327 | 52 | 322 | 1.0 | 7.0 | 0.00 | 0.00 | 0.00 | 50 | 1017.5 |
| 20260502223820 | 51 | 285 | 1.0 | 8.0 | 0.00 | 0.00 | 0.00 | 51 | 1017.5 |
| 20260502223317 | 51 | 311 | 2.0 | 8.0 | 0.00 | 0.00 | 0.00 | 50 | 1017.6 |
| 20260502222829 | 53 | 335 | 2.0 | 11.0 | 0.00 | 0.00 | 0.00 | 48 | 1017.5 |
| 20260502222322 | 54 | 318 | 5.0 | 11.0 | 0.00 | 0.00 | 0.00 | 46 | 1017.5 |
| 20260502221815 | 54 | 60 | 1.0 | 8.0 | 0.00 | 0.00 | 0.00 | 48 | 1017.5 |
| 20260502221328 | 53 | 73 | 2.0 | 12.0 | 0.00 | 0.00 | 0.00 | 49 | 1017.5 |
| 20260502220820 | 53 | 321 | 6.0 | 12.0 | 0.00 | 0.00 | 0.00 | 46 | 1017.4 |
| 20260502220312 | 54 | 17 | 3.0 | 8.0 | 0.00 | 0.00 | 0.00 | 46 | 1017.4 |
| 20260502215825 | 54 | 301 | 3.0 | 7.0 | 0.00 | 0.00 | 0.00 | 49 | 1017.3 |
| 20260502215321 | 54 | 330 | 1.0 | 8.0 | 0.00 | 0.00 | 0.00 | 49 | 1017.4 |
| 20260502214814 | 53 | 349 | 4.0 | 8.0 | 0.00 | 0.00 | 0.00 | 49 | 1017.3 |
| 20260502214327 | 52 | 44 | 4.0 | 8.0 | 0.00 | 0.00 | 0.00 | 48 | 1017.3 |
| 20260502213820 | 52 | 315 | 2.0 | 6.0 | 0.00 | 0.00 | 0.00 | 50 | 1017.4 |
| 20260502213313 | 53 | 346 | 2.0 | 7.0 | 0.00 | 0.00 | 0.00 | 47 | 1017.3 |
| 20260502212826 | 54 | 334 | 3.0 | 7.0 | 0.00 | 0.00 | 0.00 | 47 | 1017.3 |
| 20260502212318 | 53 | 25 | 1.0 | 8.0 | 0.00 | 0.00 | 0.00 | 49 | 1017.2 |
| 20260502211815 | 53 | 293 | 2.0 | 8.0 | 0.00 | 0.00 | 0.00 | 50 | 1017.2 |
| 20260502211329 | 52 | 342 | 2.0 | 9.0 | 0.00 | 0.00 | 0.00 | 51 | 1017.2 |
| 20260502210821 | 52 | 304 | 4.0 | 9.0 | 0.00 | 0.00 | 0.00 | 48 | 1017.1 |
| 20260502210314 | 53 | 339 | 2.0 | 7.0 | 0.00 | 0.00 | 0.00 | 47 | 1017.1 |
| 20260502205827 | 53 | 139 | 0.0 | 8.0 | 0.00 | 0.00 | 0.00 | 49 | 1017.2 |
| 20260502205320 | 54 | 281 | 0.0 | 8.0 | 0.00 | 0.00 | 0.00 | 49 | 1017.2 |
| 20260502204812 | 53 | 315 | 1.0 | 7.0 | 0.00 | 0.00 | 0.00 | 51 | 1017.2 |
| 20260502204325 | 52 | 203 | 3.0 | 10.0 | 0.00 | 0.00 | 0.00 | 50 | 1017.2 |
| 20260502203822 | 53 | 349 | 3.0 | 14.0 | 0.00 | 0.00 | 0.00 | 44 | 1017.2 |
| 20260502203315 | 54 | 8 | 5.0 | 14.0 | 0.00 | 0.00 | 0.00 | 46 | 1017.2 |
| 20260502202828 | 54 | 45 | 6.0 | 10.0 | 0.00 | 0.00 | 0.00 | 45 | 1017.2 |
| 20260502202321 | 55 | 224 | 1.0 | 7.0 | 0.00 | 0.00 | 0.00 | 48 | 1017.3 |
| 20260502201813 | 54 | 263 | 1.0 | 6.0 | 0.00 | 0.00 | 0.00 | 51 | 1017.4 |
| 20260502201347 | 54 | 11 | 0.0 | 9.0 | 0.00 | 0.00 | 0.00 | 48 | 1017.4 |
| 20260502200818 | 54 | 331 | 2.0 | 11.0 | 0.00 | 0.00 | 0.00 | 46 | 1017.3 |
| 20260502200311 | 54 | 291 | 4.0 | 14.0 | 0.00 | 0.00 | 0.00 | 46 | 1017.3 |
| 20260502195843 | 54 | 329 | 1.0 | 14.0 | 0.00 | 0.00 | 0.00 | 50 | 1017.4 |
| 20260502195320 | 53 | 18 | 4.0 | 10.0 | 0.00 | 0.00 | 0.00 | 44 | 1017.4 |
| 20260502194812 | 54 | 39 | 4.0 | 8.0 | 0.00 | 0.00 | 0.00 | 49 | 1017.5 |
| 20260502194345 | 55 | 335 | 2.0 | 10.0 | 0.00 | 0.00 | 0.00 | 45 | 1017.5 |
| 20260502193817 | 55 | 354 | 5.0 | 10.0 | 0.00 | 0.00 | 0.00 | 49 | 1017.4 |
| 20260502193329 | 55 | 330 | 1.0 | 8.0 | 0.00 | 0.00 | 0.00 | 49 | 1017.5 |
| 20260502192822 | 54 | 2 | 0.0 | 10.0 | 0.00 | 0.00 | 0.00 | 49 | 1017.5 |
| 20260502192315 | 54 | 276 | 3.0 | 10.0 | 0.00 | 0.00 | 0.00 | 49 | 1017.6 |
| 20260502191828 | 54 | 324 | 6.0 | 9.0 | 0.00 | 0.00 | 0.00 | 46 | 1017.6 |
| 20260502191321 | 55 | 275 | 2.0 | 8.0 | 0.00 | 0.00 | 0.00 | 48 | 1017.7 |
| 20260502190838 | 56 | 344 | 2.0 | 9.0 | 0.00 | 0.00 | 0.00 | 43 | 1017.9 |
| 20260502190329 | 56 | 283 | 3.0 | 9.0 | 0.00 | 0.00 | 0.00 | 49 | 1017.8 |
| 20260502185843 | 55 | 35 | 1.0 | 7.0 | 0.00 | 0.00 | 0.00 | 48 | 1017.9 |
| 20260502185335 | 56 | 331 | 2.0 | 9.0 | 0.00 | 0.00 | 0.00 | 51 | 1017.9 |
| 20260502184846 | 55 | 302 | 2.0 | 13.0 | 0.00 | 0.00 | 0.00 | 52 | 1017.8 |
| 20260502184318 | 55 | 248 | 4.0 | 16.0 | 0.00 | 0.00 | 0.00 | 54 | 1018.0 |
| 20260502183826 | 55 | 248 | 7.0 | 16.0 | 0.00 | 0.00 | 0.00 | 49 | 1017.9 |
| 20260502183319 | 54 | 326 | 0.0 | 12.0 | 0.00 | 0.00 | 0.00 | 51 | 1018.0 |
| 20260502182811 | 54 | 37 | 3.0 | 12.0 | 0.00 | 0.00 | 0.00 | 46 | 1017.9 |
| 20260502182324 | 54 | 360 | 2.0 | 9.0 | 0.00 | 0.00 | 0.00 | 52 | 1018.0 |
| 20260502181821 | 54 | 359 | 3.0 | 10.0 | 0.00 | 0.00 | 0.00 | 48 | 1018.1 |
| 20260502181314 | 54 | 24 | 4.0 | 11.0 | 0.00 | 0.00 | 0.00 | 49 | 1018.1 |
| 20260502180827 | 54 | 297 | 4.0 | 12.0 | 0.00 | 0.00 | 0.00 | 50 | 1018.0 |
| 20260502180320 | 54 | 286 | 2.0 | 10.0 | 0.00 | 0.00 | 0.00 | 47 | 1018.0 |
| 20260502170318 | 53 | 40 | 4.0 | 9.0 | 0.00 | 0.00 | 0.00 | 45 | 1018.5 |
| 20260502164328 | 53 | 21 | 2.0 | 8.0 | 0.00 | 0.00 | 0.00 | 55 | 1018.6 |
| 20260502163821 | 52 | 259 | 0.0 | 11.0 | 0.00 | 0.00 | 0.00 | 62 | 1018.6 |
| 20260502163314 | 52 | 43 | 3.0 | 10.0 | 0.00 | 0.00 | 0.00 | 55 | 1018.7 |
| 20260502162827 | 51 | 267 | 3.0 | 10.0 | 0.00 | 0.00 | 0.00 | 54 | 1018.6 |
| 20260502162320 | 51 | 15 | 1.0 | 9.0 | 0.00 | 0.00 | 0.00 | 59 | 1018.8 |
| 20260502161833 | 51 | 300 | 2.0 | 8.0 | 0.00 | 0.00 | 0.00 | 55 | 1018.7 |
| 20260502161325 | 51 | 37 | 2.0 | 8.0 | 0.00 | 0.00 | 0.00 | 50 | 1018.8 |
| 20260502160822 | 51 | 278 | 1.0 | 12.0 | 0.00 | 0.00 | 0.00 | 60 | 1018.8 |
| 20260502160334 | 50 | 7 | 6.0 | 12.0 | 0.00 | 0.00 | 0.00 | 53 | 1018.9 |
| 20260502152321 | 49 | 37 | 5.0 | 9.0 | 0.00 | 0.00 | 0.00 | 55 | 1018.9 |
| 20260502151813 | 49 | 335 | 2.0 | 11.0 | 0.00 | 0.00 | 0.00 | 56 | 1018.9 |
| 20260502151326 | 49 | 316 | 5.0 | 11.0 | 0.00 | 0.00 | 0.00 | 53 | 1019.0 |
| 20260502150819 | 49 | 48 | 4.0 | 12.0 | 0.00 | 0.00 | 0.00 | 55 | 1019.0 |
| 20260502150332 | 50 | 13 | 2.0 | 4.0 | 0.00 | 0.00 | 0.00 | 52 | 1018.9 |
| 20260502130343 | 43 | 32 | 3.0 | 7.0 | 0.00 | 0.01 | 0.00 | 68 | 1018.8 |
| 20260502123810 | 42 | 28 | 3.0 | 6.0 | 0.00 | 0.01 | 0.00 | 75 | 1018.7 |
| 20260502123324 | 41 | 24 | 3.0 | 6.0 | 0.00 | 0.01 | 0.00 | 76 | 1018.4 |
| 20260502122816 | 41 | 39 | 4.0 | 8.0 | 0.00 | 0.01 | 0.00 | 76 | 1018.4 |
| 20260502122349 | 41 | 24 | 5.0 | 8.0 | 0.00 | 0.01 | 0.00 | 77 | 1018.5 |
| 20260502121841 | 41 | 26 | 4.0 | 8.0 | 0.00 | 0.01 | 0.00 | 78 | 1018.5 |
| 20260502121333 | 40 | 346 | 4.0 | 7.0 | 0.00 | 0.01 | 0.00 | 81 | 1018.6 |
| 20260502120824 | 40 | 18 | 4.0 | 6.0 | 0.00 | 0.01 | 0.00 | 83 | 1018.4 |
| 20260502120317 | 40 | 37 | 4.0 | 7.0 | 0.00 | 0.01 | 0.00 | 84 | 1018.2 |
| 20260502115810 | 39 | 51 | 4.0 | 7.0 | 0.00 | 0.01 | 0.00 | 84 | 1018.2 |
| 20260502115344 | 39 | 32 | 4.0 | 7.0 | 0.00 | 0.01 | 0.00 | 84 | 1018.1 |
| 20260502114815 | 39 | 32 | 3.0 | 6.0 | 0.00 | 0.01 | 0.00 | 85 | 1018.1 |
| 20260502114312 | 40 | 51 | 3.0 | 5.0 | 0.00 | 0.01 | 0.00 | 86 | 1018.1 |
| 20260502113824 | 39 | 29 | 2.0 | 5.0 | 0.00 | 0.01 | 0.00 | 87 | 1018.0 |
| 20260502113316 | 38 | 19 | 1.0 | 3.0 | 0.00 | 0.01 | 0.00 | 90 | 1018.1 |
| 20260502112830 | 37 | 345 | 0.0 | 2.0 | 0.00 | 0.01 | 0.00 | 91 | 1018.0 |
| 20260502112322 | 36 | 359 | 0.0 | 0.0 | 0.00 | 0.01 | 0.00 | 92 | 1018.1 |
| 20260502111815 | 36 | 359 | 0.0 | 0.0 | 0.00 | 0.01 | 0.00 | 91 | 1018.1 |
| 20260502111328 | 36 | 359 | 0.0 | 0.0 | 0.00 | 0.01 | 0.00 | 91 | 1018.1 |
| 20260502110821 | 35 | 359 | 0.0 | 0.0 | 0.00 | 0.01 | 0.00 | 91 | 1018.0 |
| 20260502110317 | 35 | 359 | 0.0 | 0.0 | 0.00 | 0.01 | 0.00 | 90 | 1017.9 |
| 20260502105810 | 35 | 359 | 0.0 | 0.0 | 0.00 | 0.01 | 0.00 | 89 | 1017.9 |
| 20260502105323 | 35 | 359 | 0.0 | 0.0 | 0.00 | 0.01 | 0.00 | 88 | 1017.9 |
| 20260502104817 | 35 | 359 | 0.0 | 0.0 | 0.00 | 0.01 | 0.00 | 88 | 1017.8 |
| 20260502104349 | 36 | 359 | 0.0 | 0.0 | 0.00 | 0.01 | 0.00 | 86 | 1017.8 |
| 20260502103821 | 37 | 359 | 0.0 | 0.0 | 0.00 | 0.01 | 0.00 | 86 | 1017.7 |
| 20260502103314 | 37 | 359 | 0.0 | 0.0 | 0.00 | 0.01 | 0.00 | 86 | 1017.6 |
| 20260502102827 | 38 | 359 | 0.0 | 0.0 | 0.00 | 0.01 | 0.00 | 85 | 1017.5 |
| 20260502102324 | 39 | 359 | 0.0 | 0.0 | 0.00 | 0.01 | 0.00 | 84 | 1017.4 |
| 20260502101329 | 39 | 359 | 0.0 | 0.0 | 0.00 | 0.01 | 0.00 | 85 | 1017.4 |
| 20260502100822 | 39 | 359 | 0.0 | 0.0 | 0.00 | 0.01 | 0.00 | 84 | 1017.5 |
| 20260502100315 | 39 | 359 | 0.0 | 0.0 | 0.00 | 0.01 | 0.00 | 85 | 1017.7 |
| 20260502091325 | 39 | 15 | 0.0 | 1.0 | 0.00 | 0.01 | 0.00 | 82 | 1017.7 |
| 20260502090819 | 39 | 15 | 0.0 | 1.0 | 0.00 | 0.01 | 0.00 | 82 | 1017.8 |
| 20260502090311 | 38 | 15 | 0.0 | 2.0 | 0.00 | 0.01 | 0.00 | 83 | 1017.9 |
| 20260502071322 | 39 | 3 | 0.0 | 1.0 | 0.00 | 0.01 | 0.00 | 83 | 1017.7 |
| 20260502070815 | 39 | 15 | 0.0 | 1.0 | 0.00 | 0.01 | 0.00 | 84 | 1017.7 |
| 20260502070328 | 38 | 348 | 0.0 | 1.0 | 0.00 | 0.01 | 0.00 | 85 | 1017.6 |
| 20260502065820 | 38 | 50 | 0.0 | 1.0 | 0.00 | 0.01 | 0.00 | 85 | 1017.5 |
| 20260502065313 | 39 | 50 | 0.0 | 1.0 | 0.00 | 0.01 | 0.00 | 85 | 1017.6 |
| 20260502064810 | 39 | 50 | 0.0 | 1.0 | 0.00 | 0.01 | 0.00 | 85 | 1017.6 |
| 20260502064344 | 39 | 50 | 0.0 | 1.0 | 0.00 | 0.01 | 0.00 | 84 | 1017.7 |
| 20260502063815 | 40 | 50 | 0.0 | 1.0 | 0.00 | 0.01 | 0.00 | 83 | 1017.5 |
| 20260502063328 | 40 | 50 | 0.0 | 1.0 | 0.00 | 0.01 | 0.00 | 83 | 1017.8 |
| 20260502062821 | 40 | 50 | 0.0 | 1.0 | 0.00 | 0.01 | 0.00 | 83 | 1017.8 |
| 20260502062314 | 41 | 50 | 0.0 | 1.0 | 0.00 | 0.01 | 0.00 | 82 | 1017.9 |
| 20260502061826 | 41 | 50 | 0.0 | 1.0 | 0.00 | 0.01 | 0.00 | 81 | 1017.9 |
| 20260502061319 | 42 | 50 | 0.0 | 2.0 | 0.00 | 0.01 | 0.00 | 80 | 1017.9 |
| 20260502060833 | 42 | 50 | 1.0 | 4.0 | 0.00 | 0.01 | 0.00 | 78 | 1018.0 |
| 20260502060344 | 42 | 34 | 1.0 | 4.0 | 0.00 | 0.01 | 0.00 | 77 | 1018.1 |
| 20260502055820 | 42 | 23 | 1.0 | 5.0 | 0.00 | 0.01 | 0.00 | 78 | 1018.2 |
| 20260502055312 | 43 | 356 | 2.0 | 5.0 | 0.00 | 0.01 | 0.00 | 77 | 1018.2 |
| 20260502054826 | 42 | 29 | 1.0 | 5.0 | 0.00 | 0.01 | 0.00 | 78 | 1018.2 |
| 20260502054318 | 42 | 19 | 2.0 | 4.0 | 0.00 | 0.01 | 0.00 | 80 | 1018.1 |
| 20260502053811 | 42 | 347 | 1.0 | 3.0 | 0.00 | 0.01 | 0.00 | 81 | 1018.2 |
| 20260502053324 | 42 | 2 | 1.0 | 3.0 | 0.00 | 0.01 | 0.00 | 81 | 1018.1 |
| 20260502052817 | 43 | 27 | 0.0 | 3.0 | 0.00 | 0.01 | 0.00 | 81 | 1018.1 |
| 20260502052310 | 43 | 19 | 1.0 | 5.0 | 0.00 | 0.01 | 0.00 | 81 | 1018.1 |
| 20260502051826 | 43 | 328 | 1.0 | 5.0 | 0.00 | 0.01 | 0.00 | 81 | 1018.0 |
| 20260502051320 | 43 | 18 | 0.0 | 4.0 | 0.00 | 0.01 | 0.00 | 81 | 1018.0 |
| 20260502050812 | 43 | 34 | 1.0 | 4.0 | 0.00 | 0.01 | 0.00 | 82 | 1018.1 |
| 20260502050346 | 43 | 15 | 0.0 | 5.0 | 0.00 | 0.01 | 0.00 | 82 | 1018.1 |
| 20260502045817 | 42 | 357 | 1.0 | 5.0 | 0.00 | 0.01 | 0.00 | 83 | 1018.1 |
| 20260502045310 | 42 | 19 | 1.0 | 3.0 | 0.00 | 0.01 | 0.00 | 84 | 1018.2 |
| 20260502044823 | 42 | 345 | 1.0 | 3.0 | 0.00 | 0.01 | 0.00 | 84 | 1018.1 |
| 20260502044315 | 41 | 4 | 0.0 | 2.0 | 0.00 | 0.01 | 0.00 | 86 | 1018.2 |
| 20260502043812 | 41 | 356 | 0.0 | 2.0 | 0.00 | 0.01 | 0.00 | 87 | 1018.1 |
| 20260502043326 | 40 | 350 | 0.0 | 2.0 | 0.00 | 0.01 | 0.00 | 88 | 1018.2 |
| 20260502042818 | 40 | 356 | 0.0 | 1.0 | 0.00 | 0.01 | 0.00 | 90 | 1018.1 |
| 20260502042311 | 39 | 356 | 0.0 | 1.0 | 0.00 | 0.01 | 0.00 | 91 | 1018.1 |
| 20260502041824 | 38 | 356 | 0.0 | 1.0 | 0.00 | 0.01 | 0.00 | 92 | 1018.1 |
| 20260502041317 | 37 | 357 | 0.0 | 1.0 | 0.00 | 0.01 | 0.00 | 93 | 1018.1 |
| 20260502040830 | 37 | 357 | 0.0 | 1.0 | 0.00 | 0.01 | 0.00 | 91 | 1018.1 |
| 20260502040322 | 37 | 357 | 0.0 | 1.0 | 0.00 | 0.01 | 0.00 | 91 | 1018.1 |
| 20260502035819 | 37 | 357 | 0.0 | 0.0 | 0.00 | 0.01 | 0.00 | 89 | 1018.1 |
| 20260502035311 | 37 | 357 | 0.0 | 0.0 | 0.00 | 0.01 | 0.00 | 89 | 1018.1 |
| 20260502034845 | 38 | 357 | 0.0 | 0.0 | 0.00 | 0.01 | 0.01 | 89 | 1018.1 |
| 20260502034316 | 38 | 357 | 0.0 | 0.0 | 0.00 | 0.01 | 0.01 | 88 | 1018.1 |
| 20260502033828 | 39 | 357 | 0.0 | 0.0 | 0.00 | 0.01 | 0.01 | 88 | 1018.2 |
| 20260502033321 | 39 | 357 | 0.0 | 0.0 | 0.00 | 0.01 | 0.01 | 88 | 1018.1 |
| 20260502032813 | 39 | 357 | 0.0 | 0.0 | 0.00 | 0.01 | 0.01 | 86 | 1018.1 |
| 20260502032327 | 40 | 357 | 0.0 | 0.0 | 0.00 | 0.01 | 0.01 | 86 | 1018.1 |
| 20260502031819 | 40 | 357 | 0.0 | 0.0 | 0.00 | 0.01 | 0.01 | 84 | 1018.2 |
| 20260502031337 | 41 | 357 | 0.0 | 0.0 | 0.00 | 0.01 | 0.01 | 83 | 1018.2 |
| 20260502030848 | 41 | 357 | 0.0 | 1.0 | 0.00 | 0.01 | 0.01 | 83 | 1018.1 |
| 20260502030320 | 42 | 357 | 0.0 | 1.0 | 0.00 | 0.01 | 0.01 | 83 | 1018.1 |
| 20260502025833 | 42 | 357 | 0.0 | 0.0 | 0.00 | 0.01 | 0.01 | 82 | 1018.1 |
| 20260502025345 | 43 | 357 | 0.0 | 0.0 | 0.00 | 0.01 | 0.01 | 80 | 1018.0 |
| 20260502024817 | 43 | 357 | 0.0 | 0.0 | 0.00 | 0.01 | 0.01 | 79 | 1018.0 |
| 20260502024329 | 44 | 357 | 0.0 | 3.0 | 0.00 | 0.01 | 0.01 | 78 | 1017.9 |
| 20260502023822 | 44 | 357 | 0.0 | 3.0 | 0.00 | 0.01 | 0.01 | 78 | 1017.8 |
| 20260502023314 | 44 | 349 | 0.0 | 3.0 | 0.00 | 0.01 | 0.01 | 77 | 1017.9 |
| 20260502022847 | 44 | 349 | 0.0 | 3.0 | 0.00 | 0.01 | 0.01 | 77 | 1018.0 |
| 20260502022318 | 44 | 335 | 0.0 | 3.0 | 0.00 | 0.01 | 0.01 | 77 | 1018.0 |
| 20260502021836 | 45 | 333 | 1.0 | 4.0 | 0.00 | 0.01 | 0.01 | 77 | 1018.0 |
| 20260502021327 | 45 | 15 | 1.0 | 4.0 | 0.00 | 0.01 | 0.01 | 77 | 1018.0 |
| 20260502020820 | 44 | 349 | 1.0 | 3.0 | 0.00 | 0.01 | 0.01 | 77 | 1017.9 |
| 20260502020313 | 45 | 349 | 0.0 | 1.0 | 0.00 | 0.01 | 0.01 | 77 | 1017.8 |
| 20260502015826 | 45 | 349 | 0.0 | 1.0 | 0.00 | 0.01 | 0.01 | 76 | 1017.7 |
| 20260502015319 | 45 | 342 | 0.0 | 3.0 | 0.00 | 0.01 | 0.01 | 75 | 1017.5 |
| 20260502014812 | 46 | 2 | 1.0 | 7.0 | 0.00 | 0.01 | 0.01 | 75 | 1017.5 |
| 20260502014324 | 46 | 10 | 2.0 | 7.0 | 0.00 | 0.01 | 0.01 | 75 | 1017.4 |
| 20260502013821 | 45 | 25 | 2.0 | 6.0 | 0.00 | 0.01 | 0.01 | 76 | 1017.2 |
| 20260502013334 | 45 | 330 | 1.0 | 4.0 | 0.00 | 0.01 | 0.01 | 79 | 1017.1 |
| 20260502012846 | 45 | 354 | 0.0 | 1.0 | 0.00 | 0.01 | 0.01 | 78 | 1017.1 |
| 20260502012338 | 46 | 354 | 0.0 | 1.0 | 0.00 | 0.01 | 0.01 | 76 | 1017.1 |
| 20260502011830 | 46 | 354 | 0.0 | 1.0 | 0.00 | 0.01 | 0.01 | 76 | 1017.0 |
| 20260502011322 | 46 | 349 | 0.0 | 3.0 | 0.00 | 0.01 | 0.01 | 75 | 1016.8 |
| 20260502010815 | 46 | 349 | 1.0 | 3.0 | 0.00 | 0.01 | 0.01 | 74 | 1016.6 |
| 20260502010348 | 46 | 2 | 0.0 | 2.0 | 0.00 | 0.01 | 0.01 | 74 | 1016.5 |
| 20260502005820 | 46 | 12 | 1.0 | 3.0 | 0.00 | 0.01 | 0.01 | 73 | 1016.5 |
| 20260502005313 | 47 | 331 | 0.0 | 3.0 | 0.00 | 0.01 | 0.01 | 72 | 1016.4 |